Location: ??
(35.4627°N, 139.3695°E)
Time: 06:15:34
(UTC+00:00)

ADEOS - Pass Details

Date: 25 November 2020
Orbit: 792 x 795 km, 98.9° (Epoch: 20 January)

Event Time Altitude Azimuth Distance (km) Brightness Sun altitude
Rises 19:51:33 0° 4° (N) 3,302 6.7 -19.5°
Reaches altitude 10° 19:53:59 10° 358° (N) 2,369 5.9 -19.0°
Maximum altitude 19:58:51 41° 289° (WNW) 1,136 3.9 -18.0°
Drops below altitude 10° 20:03:42 10° 220° (SW) 2,354 5.8 -17.1°
Sets 20:06:07 0° 214° (SSW) 3,279 6.6 -16.6°
